Terminal Aerodrome Forecast
Issued by NWS Greer, SC

Home | Current Version | Previous Version | Text Only | Print | Product List | Glossary On
Versions: 1 2 3 4 5 6 7 8 9 10 11 12 13 14 15 16 17 18 19 20 21 22
000
FTUS42 KGSP 272339
TAFCLT
TAF
KCLT 272339Z 2800/2824 10006KT P6SM -SHRA SCT040 BKN070 BKN150
      TEMPO 2800/2801 VRB10G18KT 4SM -TSRA BKN040CB
     FM280200 05004KT P6SM SCT060
     FM280800 05004KT P6SM SCT008 BKN025
     FM281400 04007KT P6SM SCT025
     FM281600 04010G17KT P6SM SCT150=

USA.gov is the U.S. government's official web portal to all federal, state and local government web resources and services.